When you browse on this site, cookies collect data to enhance your experience and personalize the content and advertising you see.
Visit our Privacy Policy to learn more. By continuing to use the site, you agree to this use of cookies and data.

Hourly Weather Mansa Konko

Today, 11 July, Saturday

Time Temperature Precipitation Wind Pressure Humidity
00:00 +29°C° 0 mm 2 mps 757 mmHg 72%
01:00 +29°C° 0 mm 2 mps 756 mmHg 74%
02:00 +28°C° 0 mm 2 mps 756 mmHg 76%
03:00 +28°C° 0 mm 2 mps 756 mmHg 76%
04:00 +28°C° 0 mm 1 mps 756 mmHg 77%
05:00 +28°C° 0 mm 1 mps 757 mmHg 81%
06:00 +29°C° 1.6 mm 1 mps 757 mmHg 79%
07:00 +29°C° 1.6 mm 1 mps 757 mmHg 77%
08:00 +30°C° 1.6 mm 1 mps 757 mmHg 75%
09:00 +30°C° 1.4 mm 2 mps 757 mmHg 72%
10:00 +31°C° 1.4 mm 3 mps 757 mmHg 70%
11:00 +33°C° 1.4 mm 3 mps 758 mmHg 67%
12:00 +34°C° 0.1 mm 4 mps 757 mmHg 63%
13:00 +35°C° 0.1 mm 4 mps 756 mmHg 58%
14:00 +35°C° 0.1 mm 4 mps 755 mmHg 54%
15:00 +35°C° 0.7 mm 4 mps 755 mmHg 58%
16:00 +34°C° 0.7 mm 4 mps 755 mmHg 62%
17:00 +33°C° 0.7 mm 4 mps 755 mmHg 66%
18:00 +32°C° 2 mm 4 mps 756 mmHg 70%
19:00 +30°C° 2 mm 4 mps 756 mmHg 75%
20:00 +29°C° 2 mm 4 mps 757 mmHg 79%
21:00 +29°C° 1.4 mm 4 mps 757 mmHg 81%
22:00 +28°C° 1.4 mm 3 mps 757 mmHg 82%
23:00 +28°C° 1.4 mm 3 mps 758 mmHg 83%

Tomorrow, 12 July, Sunday

Time Temperature Precipitation Wind Pressure Humidity
00:00 +28°C° 0.1 mm 3 mps 757 mmHg 84%
01:00 +28°C° 0.1 mm 2 mps 757 mmHg 85%
02:00 +27°C° 0.1 mm 2 mps 756 mmHg 85%
03:00 +27°C° 0.9 mm 1 mps 756 mmHg 86%
04:00 +27°C° 0.9 mm 1 mps 756 mmHg 86%
05:00 +25°C° 0.9 mm 0 mps 757 mmHg 87%
06:00 +28°C° 1.1 mm 1 mps 757 mmHg 85%
07:00 +28°C° 1.1 mm 1 mps 757 mmHg 83%
08:00 +28°C° 1.1 mm 2 mps 758 mmHg 81%
09:00 +27°C° 3.1 mm 2 mps 758 mmHg 84%
10:00 +27°C° 3.1 mm 3 mps 758 mmHg 87%
11:00 +26°C° 3.1 mm 4 mps 759 mmHg 91%
12:00 +27°C° 1.5 mm 3 mps 758 mmHg 86%
13:00 +28°C° 1.5 mm 3 mps 758 mmHg 82%
14:00 +29°C° 1.5 mm 3 mps 758 mmHg 78%
15:00 +29°C° 0 mm 3 mps 757 mmHg 76%
16:00 +29°C° 0 mm 3 mps 757 mmHg 74%
17:00 +30°C° 0 mm 3 mps 757 mmHg 73%
18:00 +29°C° 0 mm 3 mps 758 mmHg 76%
19:00 +28°C° 0 mm 3 mps 758 mmHg 80%
20:00 +27°C° 0 mm 2 mps 759 mmHg 84%
21:00 +27°C° 0 mm 2 mps 759 mmHg 85%
22:00 +27°C° 0 mm 1 mps 759 mmHg 87%
23:00 +26°C° 0 mm 1 mps 760 mmHg 88%

Day after tomorrow, 13 July, Monday

Time Temperature Precipitation Wind Pressure Humidity
00:00 +26°C° 0 mm 1 mps 759 mmHg 88%
01:00 +26°C° 0 mm 1 mps 759 mmHg 88%
02:00 +26°C° 0 mm 1 mps 758 mmHg 88%
03:00 +26°C° 0 mm 1 mps 758 mmHg 89%
04:00 +26°C° 0 mm 1 mps 758 mmHg 89%
05:00 +26°C° 0 mm 1 mps 758 mmHg 89%
06:00 +26°C° 0 mm 1 mps 759 mmHg 88%
07:00 +27°C° 0 mm 1 mps 759 mmHg 87%
08:00 +27°C° 0 mm 1 mps 760 mmHg 86%
09:00 +29°C° 0 mm 1 mps 760 mmHg 78%
10:00 +31°C° 0 mm 1 mps 760 mmHg 70%
11:00 +32°C° 0 mm 1 mps 760 mmHg 62%
12:00 +34°C° 0.3 mm 2 mps 759 mmHg 59%
13:00 +35°C° 0.3 mm 2 mps 758 mmHg 56%
14:00 +36°C° 0.3 mm 2 mps 758 mmHg 52%
15:00 +35°C° 0.4 mm 2 mps 757 mmHg 53%
16:00 +35°C° 0.4 mm 2 mps 757 mmHg 53%
17:00 +35°C° 0.4 mm 2 mps 757 mmHg 54%
18:00 +32°C° 0.7 mm 2 mps 757 mmHg 60%
19:00 +31°C° 0.7 mm 3 mps 758 mmHg 67%
20:00 +29°C° 0.7 mm 4 mps 759 mmHg 74%
21:00 +29°C° 0 mm 4 mps 759 mmHg 76%
22:00 +29°C° 0 mm 3 mps 759 mmHg 78%
23:00 +28°C° 0 mm 3 mps 759 mmHg 81%

14 July, Tuesday

Time Temperature Precipitation Wind Pressure Humidity
00:00 +28°C° 0 mm 3 mps 759 mmHg 82%
01:00 +28°C° 0 mm 3 mps 758 mmHg 82%
02:00 +28°C° 0 mm 3 mps 758 mmHg 83%
03:00 +28°C° 0.1 mm 3 mps 758 mmHg 83%
04:00 +28°C° 0.1 mm 2 mps 758 mmHg 83%
05:00 +27°C° 0.1 mm 2 mps 758 mmHg 83%
06:00 +28°C° 0.4 mm 2 mps 758 mmHg 82%
07:00 +28°C° 0.4 mm 2 mps 758 mmHg 81%
08:00 +28°C° 0.4 mm 2 mps 759 mmHg 79%
09:00 +30°C° 0 mm 3 mps 758 mmHg 73%
10:00 +31°C° 0 mm 3 mps 758 mmHg 66%
11:00 +34°C° 0 mm 3 mps 758 mmHg 59%
12:00 +35°C° 0 mm 3 mps 757 mmHg 53%
13:00 +37°C° 0 mm 3 mps 756 mmHg 48%
14:00 +38°C° 0 mm 3 mps 755 mmHg 42%
15:00 +37°C° 0.1 mm 4 mps 755 mmHg 45%
16:00 +36°C° 0.1 mm 4 mps 755 mmHg 48%
17:00 +35°C° 0.1 mm 5 mps 754 mmHg 51%
18:00 +34°C° 0 mm 5 mps 755 mmHg 56%
19:00 +33°C° 0 mm 5 mps 756 mmHg 61%
20:00 +30°C° 0 mm 5 mps 756 mmHg 66%
21:00 +30°C° 0 mm 5 mps 756 mmHg 69%
22:00 +29°C° 0 mm 4 mps 757 mmHg 72%
23:00 +29°C° 0 mm 4 mps 757 mmHg 75%

15 July, Wednesday

Time Temperature Precipitation Wind Pressure Humidity
00:00 +28°C° 0 mm 3 mps 756 mmHg 77%
01:00 +28°C° 0 mm 3 mps 756 mmHg 80%
02:00 +27°C° 0 mm 3 mps 756 mmHg 82%
03:00 +27°C° 0 mm 3 mps 756 mmHg 81%
04:00 +28°C° 0 mm 3 mps 756 mmHg 79%
05:00 +28°C° 0 mm 3 mps 756 mmHg 78%
06:00 +28°C° 0 mm 3 mps 756 mmHg 75%
07:00 +29°C° 0 mm 3 mps 756 mmHg 72%
08:00 +29°C° 0 mm 3 mps 757 mmHg 69%
09:00 +31°C° 0 mm 3 mps 757 mmHg 62%
10:00 +33°C° 0 mm 3 mps 756 mmHg 54%
11:00 +34°C° 0 mm 3 mps 756 mmHg 46%
12:00 +35°C° 0 mm 3 mps 756 mmHg 44%
13:00 +36°C° 0 mm 3 mps 755 mmHg 41%
14:00 +37°C° 0 mm 3 mps 755 mmHg 38%
15:00 +36°C° 0 mm 4 mps 755 mmHg 41%
16:00 +35°C° 0 mm 4 mps 755 mmHg 43%
17:00 +35°C° 0 mm 4 mps 755 mmHg 46%
18:00 +33°C° 0 mm 4 mps 755 mmHg 51%
19:00 +32°C° 0 mm 4 mps 756 mmHg 56%
20:00 +29°C° 0 mm 5 mps 757 mmHg 62%
21:00 +29°C° 0 mm 4 mps 757 mmHg 65%
22:00 +28°C° 0 mm 4 mps 757 mmHg 68%
23:00 +28°C° 0 mm 3 mps 758 mmHg 72%

16 July, Thursday

Time Temperature Precipitation Wind Pressure Humidity
00:00 +28°C° 0 mm 3 mps 757 mmHg 73%
01:00 +28°C° 0 mm 3 mps 757 mmHg 73%
02:00 +27°C° 0 mm 2 mps 757 mmHg 74%
03:00 +27°C° 0.1 mm 2 mps 757 mmHg 75%
04:00 +27°C° 0.1 mm 1 mps 757 mmHg 76%
05:00 +27°C° 0.1 mm 1 mps 757 mmHg 77%
06:00 +27°C° 0.3 mm 1 mps 758 mmHg 79%
07:00 +27°C° 0.3 mm 1 mps 758 mmHg 81%
08:00 +27°C° 0.3 mm 1 mps 759 mmHg 83%
09:00 +27°C° 2.7 mm 1 mps 759 mmHg 85%
10:00 +26°C° 2.7 mm 2 mps 759 mmHg 87%
11:00 +26°C° 2.7 mm 2 mps 759 mmHg 89%
12:00 +26°C° 2.3 mm 2 mps 759 mmHg 89%
13:00 +26°C° 2.3 mm 2 mps 758 mmHg 88%
14:00 +26°C° 2.3 mm 1 mps 758 mmHg 87%
15:00 +27°C° 0.2 mm 2 mps 758 mmHg 87%
16:00 +27°C° 0.2 mm 2 mps 758 mmHg 87%
17:00 +27°C° 0.2 mm 2 mps 758 mmHg 86%
18:00 +27°C° 0 mm 2 mps 758 mmHg 88%
19:00 +27°C° 0 mm 2 mps 759 mmHg 89%
20:00 +26°C° 0 mm 2 mps 760 mmHg 91%
21:00 +26°C° 0.1 mm 2 mps 760 mmHg 91%
22:00 +26°C° 0.1 mm 2 mps 759 mmHg 91%
23:00 +26°C° 0.1 mm 2 mps 759 mmHg 92%
Show more